This demonstration page uses our WeatherBlox Daily Observations layout. Learn more.

38.88101, -77.10428

Hourly Observations for October 8, 2020

Temp ( °F °C ) Dew Point ( °F °C ) Humidity (%) Winds ( mph kmh ) Pressure ( in mb ) Visibility ( mi km ) Precip ( " mm )
12:52 am 00:52 Mostly Clear 67 19.4 49 9.4 53 53 NNW 7 11 29.89 1012 10 16.0934 0 0
1:52 am 01:52 Mostly Clear 62 16.7 53 11.7 73 73 N 6 9 29.91 1013 10 16.0934 0 0
2:52 am 02:52 Mostly Clear 65 18.3 49 9.4 56 56 NNW 10 17 29.93 1014 10 16.0934 0 0
3:52 am 03:52 Clear 64 17.8 48 8.9 56 56 NNW 13 20 29.95 1014 10 16.0934 0 0
4:52 am 04:52 Clear 61 16.1 48 8.9 63 63 N 9 15 29.98 1015 10 16.0934 0 0
5:52 am 05:52 Clear 59 15 48 8.9 67 67 NNW 9 15 30 1016 10 16.0934 0 0
6:52 am 06:52 Mostly Clear 59 15 47 8.3 64 64 NNW 13 20 30.03 1017 10 16.0934 0 0
7:52 am 07:52 Sunny 59 15 47 8.3 64 64 NNW 10 17 30.05 1018 10 16.0934 0 0
8:52 am 08:52 Sunny 62 16.7 46 7.8 56 56 NW 14 22 30.08 1019 10 16.0934 0 0
9:52 am 09:52 Sunny 64 17.8 45 7.2 50 50 NNW 15 24 30.1 1019 10 16.0934 0 0
10:52 am 10:52 Mostly Sunny 66 18.9 46 7.8 49 49 NW 17 28 30.09 1019 10 16.0934 0 0
11:52 am 11:52 Mostly Sunny 68 20 46 7.8 45 45 NNW 16 26 30.09 1019 10 16.0934 0 0
12:52 pm 12:52 Mostly Sunny 69 20.6 45 7.2 42 42 NW 12 19 30.08 1019 10 16.0934 0 0
1:52 pm 13:52 Mostly Sunny 70 21.1 45 7.2 41 41 WNW 17 28 30.07 1018 10 16.0934 0 0
2:52 pm 14:52 Mostly Sunny 70 21.1 44 6.7 39 39 NW 15 24 30.06 1018 10 16.0934 0 0
3:52 pm 15:52 Mostly Sunny 71 21.7 44 6.7 38 38 NNW 17 28 30.06 1018 10 16.0934 0 0
4:52 pm 16:52 Mostly Sunny 70 21.1 43 6.1 38 38 NW 12 19 30.07 1018 10 16.0934 0 0
5:52 pm 17:52 Mostly Sunny 68 20 41 5 38 38 NNW 15 24 30.09 1019 10 16.0934 0 0
6:52 pm 18:52 Mostly Clear 65 18.3 41 5 42 42 NW 12 19 30.11 1020 10 16.0934 0 0
7:52 pm 19:52 Clear 62 16.7 42 5.6 48 48 NNW 7 11 30.14 1021 10 16.0934 0 0
8:52 pm 20:52 Clear 61 16.1 42 5.6 50 50 NNW 7 11 30.16 1021 10 16.0934 0 0
9:52 pm 21:52 Clear 58 14.4 44 6.7 60 60 NNW 7 11 30.18 1022 10 16.0934 0 0
10:52 pm 22:52 Clear 58 14.4 46 7.8 65 65 N 3 6 30.19 1023 10 16.0934 0 0
11:52 pm 23:52 Clear 56 13.3 45 7.2 67 67 N 3 6 30.2 1023 10 16.0934 0 0

Powered by AerisWeather